Welcome to the New NWS' Forecast!
Most changes are behind the scenes, but click here for differences you might notice.

Regional Weather Roundup (RWR)

Issued by Gray - Portland, ME (GYX)

                            
000
ASUS41 KGYX 181605
RWRGYX
WEATHER ROUNDUP FOR MAINE AND NEW HAMPSHIRE
NATIONAL WEATHER SERVICE GRAY ME
1200 PM EDT THU OCT 18 2018

MEZ002-005-006-010-012-015-018-020-021-024-026-027-029-181700-
MAINE
  
CITY           SKY/WX    TMP DP  RH WIND       PRES   REMARKS
PORTLAND       FAIR      43  21  41 NW17G24   30.13R                  
SANFORD        FAIR      42  19  39 W18G26    30.15R                  
BAR HARBOR     FAIR      41  17  38 W17G31    29.97S                  
WISCASSET      FAIR      42  19  39 W10G24    30.09S                  
ROCKLAND       FAIR      42  18  37 NW21G31   30.02S                  
FRYEBURG       PTSUNNY   38  17  42 NW10G22   30.15R                  
LEWISTONAUBURN FAIR      39  19  44 NW22G32   30.11S                  
AUGUSTA        FAIR      39  18  42 W24G35    30.07R                  
WATERVILLE     FAIR      40  19  43 NW16G29   30.02S                  
BANGOR         PTSUNNY   41  17  38 NW21G33   29.99S                  
GREENVILLE       N/A     32  16  51 NW16G31   29.93R                  
MILLINOCKET    CLOUDY    37  16  42 NW22G39   29.96R                  
HOULTON        CLOUDY    37  18  46 NW16G31   29.84R                  
PRESQUE ISLE   CLOUDY    36  19  50 NW18G36   29.85R                  
FRENCHVILLE    FLURRIES  36  18  48 NW31G46   29.81R                  
CARIBOU        CLOUDY    36  19  50 NW23G41   29.82R                  
$$

NHZ002-005-008-009-011-012-014-181700-
NEW HAMPSHIRE
  
CITY           SKY/WX    TMP DP  RH WIND       PRES   REMARKS
PORTSMOUTH     MOSUNNY   43  17  35 W17G25    30.16R                  
ROCHESTER      FAIR      41  20  43 NW18G26   30.15R                  
NASHUA         FAIR      43  17  35 NW17G25   30.22R                  
MANCHESTER     FAIR      43  13  29 NW18G28   30.20R                  
CONCORD        FAIR      40  18  41 NW21G30   30.19R                  
LACONIA        CLOUDY    38  17  42 NW13G21   30.18S                  
PLYMOUTH       CLOUDY    38  20  49 W13       30.18S                  
BERLIN         FLURRIES  32  21  64 W13G23    30.14R                  
WHITEFIELD     CLOUDY    34  20  56 W12G23    30.18R                  
JAFFREY        FAIR      38  16  40 W10       30.20R                  
KEENE          FAIR      39  15  37 NW15G24   30.23R                  
LEBANON        PTSUNNY   39  17  41 NW16G24   30.22F                  
MT WASHINGTON  SNOW       7   7 100 NW66G76     N/A  VSB 1/16WCI -24  
$$

VTZ005-007-008-181700-
VERMONT
  
CITY           SKY/WX    TMP DP  RH WIND       PRES   REMARKS
ST JOHNSBURY     N/A     33  20  58 MISG      30.20R                  
MONTPELIER     PTSUNNY   33  22  63 NW10G20   30.25R                  
BURLINGTON     PTSUNNY   38  19  46 NW14      30.27R                  
$$

MAZ007-012-024-CTZ003-RIZ002-NYZ038-NYZ072-181700-
SOUTHERN NEW ENGLAND AND NY
  
CITY           SKY/WX    TMP DP  RH WIND       PRES   REMARKS
BOSTON         FAIR      45  15  30 NW20G29   30.21S                  
WORCESTER      FAIR      39  15  37 NW15G28   30.20S                  
NANTUCKET      FAIR      45  20  36 NW17G26   30.21R                  
PROVIDENCE     FAIR      45  17  32 NW16G26   30.24R                  
HARTFORD       FAIR      44  15  31 NW12G24   30.28R                  
ALBANY         FAIR      41  19  41 NW12G21   30.35S                  
NEW YORK CITY  FAIR      48  23  37 NW15G25   30.34S                  
$$

ANZ081-ANZ082-ANZ150-NHZ014-MEZ023>029-181700-
COASTAL MARINE OBSERVATIONS
  
STATION/POSITION TIME  TEMP    WIND        PRES    WAVE
                       AIR SEA DIR/SP/G            HT/PER
                 (UTC) (F)     (DEG/KT/KT) (MB)    (FT/S)
MATINICUS ROCK   1500   39     300/ 33/ 38 1016.0R
ISLE OF SHOALS   1500   39     310/ 25/ 31 1020.8R
JEFFREYS LEDGE   1506      55                N/A     6/ 5
$$

.............KEY..............
   WCI - WIND CHILL
   TC  - TEMPERATURE IN CELSIUS
   VSB - VISIBILITY IN MILES
   HX  - HEAT INDEX
   FAIR- INDICATES FEW OR NO CLOUDS BELOW 12,000 FT, WITH NO 
         SIGNIFICANT WEATHER AND/OR OBSTRUCTIONS TO VISIBILITY.